Location: Ahausen
(50.4985°N, 8.2722°E)
Time: 13:09:07
(UTC+00:00)

JY1SAT - Pass Details

Date: 03 July 2022
Orbit: 564 x 586 km, 97.6° (Epoch: 08 August)

Event Time Altitude Azimuth Distance (km) Brightness Sun altitude
Exits shadow 20:21:43 - 150° (SSE) 2,227 ? -5.5°
Reaches altitude 10° 20:22:29 10° 149° (SSE) 1,912 ? -5.6°
Maximum altitude 20:26:32 55° 71° (ENE) 713 ? -6.0°
Drops below altitude 10° 20:30:37 10° 354° (N) 1,922 ? -6.5°
Sets 20:32:49 0° 350° (N) 2,825 ? -6.7°
